Temp
12 12 12 12 12 12 12 12 12 12 12 12 12 12 12 12 12 12 12 12 12 12 11 11 11 11 11 11 11 11 11 11 10 10 10 10 9 9 9 9 9 9 9 9 9 9 9 9 9 9 9 9
12 12 12 12 12 12 12 12 12 12 12 12 12 12 12 12 12 12 12 12 12 12 11 11 11 11 11 11 11 11 11 11 10 10 10 10 10 9 9 9 9 9 9 9 9 9 9 9 9 9 9 9
12 12 12 12 12 12 11 12 12 12 12 12 12 12 12 12 12 12 12 12 12 11 11 11 11 11 11 11 11 11 11 11 10 10 10 10 10 10 9 9 9 9 9 9 9 9 9 9 9 9 9 9
12 12 12 12 11 11 11 11 11 11 11 11 12 12 12 12 12 12 12 12 12 11 11 11 11 11 11 11 11 11 11 10 10 10 10 10 10 10 9 9 9 9 9 9 9 9 9 9 9 9 8 8
12 12 12 11 11 11 11 11 11 11 11 11 11 12 12 12 12 12 12 11 11 11 11 11 11 11 11 10 10 10 10 10 10 10 10 10 10 10 9 9 9 9 9 9 9 8 8 8 8 8 8 8
12 12 12 11 11 11 11 11 11 11 11 11 11 11 11 11 11 11 12 11 11 11 11 11 11 11 11 10 10 10 10 10 10 10 10 10 9 9 9 9 9 9 9 9 8 8 8 8 8 7 8 8
12 12 11 11 11 11 11 11 11 11 11 11 11 11 11 11 11 11 11 11 11 11 11 11 11 11 10 10 10 10 10 10 10 10 10 9 9 9 9 9 9 8 8 8 8 8 8 8 8 8 8 8
12 12 11 11 11 11 11 11 11 11 11 11 11 11 11 11 11 11 11 11 11 11 11 11 11 11 10 10 10 10 10 9 10 9 9 9 9 9 9 9 9 8 8 8 8 8 8 7 8 8 8 8
12 12 11 11 11 11 11 11 11 11 11 11 11 11 11 11 11 11 11 11 11 11 11 11 11 10 10 10 10 10 9 9 9 9 9 9 9 9 9 9 9 8 8 8 7 7 7 7 7 8 7 7
12 12 12 11 11 11 11 11 11 11 11 11 11 11 10 10 11 11 11 11 11 11 11 11 10 10 10 10 10 9 9 9 9 9 9 9 9 9 8 9 8 8 8 8 7 7 7 7 7 7 7 7
12 12 12 11 11 11 11 10 11 11 11 11 11 11 10 10 10 10 10 10 11 11 10 10 10 10 9 9 9 9 9 9 9 9 9 8 8 8 8 8 8 8 8 8 7 7 7 7 7 7 7 7
12 12 11 11 11 11 11 11 11 11 11 11 11 10 10 10 10 10 10 10 10 10 10 10 10 10 9 9 9 9 9 9 9 9 8 8 8 8 8 8 8 8 8 8 7 7 7 7 7 7 7 7
12 12 11 11 11 11 11 11 11 11 11 11 10 10 10 10 10 10 10 10 10 10 10 10 10 10 9 9 9 9 9 9 9 8 8 8 8 8 8 8 8 8 8 7 7 7 7 7 7 7 7 7
12 12 11 11 11 11 11 11 10 10 10 10 10 10 10 10 10 10 9 9 9 9 10 10 9 9 9 9 9 9 9 8 8 8 7 7 7 7 7 7 7 7 7 7 7 7 7 7 7 6 6 7
12 12 12 11 11 11 11 11 10 10 10 10 10 11 10 10 10 10 9 9 9 9 9 9 9 9 9 9 9 9 9 8 8 7 7 7 7 7 7 7 7 7 7 7 7 7 7 7 7 7 6 6
12 12 12 12 11 11 11 11 11 10 10 10 11 11 11 10 10 10 9 9 9 9 9 9 9 9 9 9 9 8 8 8 8 7 7 7 7 7 7 7 7 7 6 7 7 6 6 6 6 6 6 6
12 12 12 12 12 11 11 11 11 11 10 10 10 11 11 11 10 10 9 9 9 9 9 9 9 9 9 8 8 8 8 8 8 7 7 7 6 7 6 6 7 6 6 6 6 6 6 6 5 5 5 6
12 12 12 12 11 11 11 11 11 11 10 10 10 10 10 11 10 10 10 9 9 9 8 8 8 8 8 8 8 8 8 8 7 6 6 6 6 6 6 6 6 6 6 6 6 6 6 5 5 5 5 5
12 12 12 11 11 11 11 11 10 10 10 10 10 10 10 10 10 10 10 9 9 8 8 7 8 8 8 7 7 7 7 7 7 6 6 5 5 5 5 5 6 5 5 5 5 5 5 5 5 4 4 5
11 11 11 11 11 11 11 10 10 10 10 10 10 10 10 10 10 10 10 9 8 8 8 7 7 7 7 6 6 6 6 6 6 5 5 5 5 5 5 5 5 5 5 5 5 5 5 5 5 4 4 5
10 10 10 10 10 10 10 10 10 10 10 10 10 10 10 10 9 9 9 8 7 7 7 6 6 7 6 6 5 5 5 5 5 5 4 5 5 4 4 5 5 5 5 5 5 4 4 4 4 4 4 5
9 9 10 10 10 10 10 10 10 10 10 10 9 9 9 8 8 8 7 7 6 6 6 6 6 6 6 5 5 4 4 4 4 4 4 4 4 4 3 4 4 5 5 5 4 3 4 4 4 4 4 4
9 9 9 9 9 9 9 9 9 9 9 9 9 8 8 8 7 7 7 6 6 6 6 5 5 5 5 4 4 4 4 4 4 4 4 3 3 3 3 3 3 3 4 3 3 3 3 3 3 4 4 4
8 8 8 8 8 8 9 8 8 8 8 8 7 7 7 6 6 6 6 6 5 5 5 5 5 5 5 4 3 3 3 3 4 4 3 3 3 3 3 3 3 3 2 2 3 3 3 4 4 4 5 5
7 7 8 8 8 8 8 8 8 7 7 7 6 6 6 5 5 5 4 4 4 4 4 4 4 4 4 3 3 3 3 3 3 3 3 2 2 2 2 2 3 3 2 2 3 4 5 5 5 5 5 5
7 7 7 7 7 7 7 7 7 7 7 6 6 5 5 4 4 3 3 3 3 3 3 3 3 2 2 3 2 2 2 2 2 2 2 2 2 2 2 2 3 2 2 3 4 4 4 5 5 6 5 5
6 6 6 6 6 6 6 7 6 6 6 6 5 5 4 3 2 2 2 2 2 1 1 1 1 1 2 2 2 1 2 2 2 2 2 2 2 2 2 2 2 2 2 2 3 3 3 4 5 6 6 6
8 8 7 6 6 6 6 6 6 6 6 5 5 4 3 3 1 1 1 1 0 0 -0 -0 -0 -0 0 0 0 0 1 1 1 1 1 1 1 1 1 2 2 2 1 1 2 3 3 4 4 4 6 6
8 7 6 6 6 6 6 6 6 5 5 4 3 3 2 1 0 -1 -1 -1 -1 -1 -1 -1 -2 -2 -2 -2 -1 -1 -1 -0 -0 -1 -1 -1 -1 -0 -0 0 0 0 1 1 1 1 2 2 3 3 4 3
6 5 5 5 5 5 5 6 5 4 3 2 2 1 0 -0 -1 -2 -2 -2 -2 -2 -2 -2 -2 -2 -2 -2 -3 -3 -3 -2 -2 -3 -3 -3 -3 -2 -2 -2 -1 -1 -1 -0 -1 -1 -0 0 1 1 1 -0
3 3 3 3 3 3 3 3 3 2 1 0 -0 -1 -1 -2 -2 -3 -3 -3 -3 -3 -3 -3 -3 -3 -3 -3 -3 -3 -4 -4 -4 -4 -4 -4 -4 -4 -4 -4 -3 -3 -2 -2 -2 -2 -2 -2 -2 -2 -3 -3
Height
846 846 845 845 845 844 844 844 843 844 844 843 843 843 842 842 841 841 840 840 839 838 838 837 837 836 835 834 833 832 831 830 829 828 827 826 826 825 824 822 821 820 819 817 816 815 813 812 810 809 808 806
845 845 845 844 844 844 843 843 843 843 843 843 843 842 842 842 841 840 840 839 838 838 837 837 836 835 834 833 832 831 830 829 828 827 826 825 824 823 822 821 820 819 818 816 815 814 812 811 810 809 807 806
845 844 844 843 843 843 843 843 843 843 843 842 842 842 841 841 840 839 839 838 837 837 836 836 835 834 833 832 831 830 829 828 827 826 825 824 823 822 821 820 819 818 816 815 814 812 811 810 809 807 806 805
844 843 843 843 843 843 843 842 842 842 842 841 841 841 840 840 839 838 837 837 836 835 835 834 833 833 832 831 830 828 827 826 825 824 823 823 822 821 820 819 818 817 815 814 812 811 810 808 807 806 805 803
843 843 842 842 842 842 842 841 841 841 840 840 839 839 838 838 837 837 836 835 834 834 833 832 832 831 830 829 828 827 826 825 824 823 822 821 820 819 818 817 816 815 814 813 812 810 809 807 806 804 803 802
842 842 841 841 841 840 840 840 839 839 839 838 838 837 837 836 836 835 834 833 832 832 831 830 829 828 828 827 826 825 824 823 822 821 820 819 818 817 816 815 815 813 812 811 810 809 807 806 805 803 801 800
841 841 840 840 839 839 838 838 837 837 837 836 836 836 835 835 834 833 832 831 830 830 829 828 827 826 825 825 824 823 822 821 820 819 818 817 816 815 814 813 812 811 810 809 808 807 806 804 803 801 800 798
839 839 839 838 837 837 836 836 836 835 835 835 835 834 834 833 832 831 830 829 828 828 827 825 825 824 823 822 821 821 820 819 818 817 816 815 814 813 812 811 810 809 808 807 806 805 804 803 801 800 798 796
838 837 837 836 836 835 835 834 834 834 833 833 833 832 832 831 830 829 829 827 826 825 825 824 823 822 821 820 819 819 818 817 816 815 814 813 812 811 809 808 807 806 805 804 804 803 802 800 799 797 796 794
836 836 835 834 834 833 833 833 832 832 831 831 830 830 830 829 828 827 826 825 824 823 822 821 821 820 819 818 817 816 815 815 813 812 811 810 809 808 806 805 804 803 802 801 800 800 798 797 796 795 793 792
834 834 833 833 832 832 831 831 830 830 829 829 828 828 827 827 826 825 824 823 822 821 820 819 819 818 817 816 815 814 813 811 810 809 808 807 805 804 803 802 801 800 799 798 797 796 795 794 793 792 790 789
833 832 832 832 831 830 830 829 829 828 827 827 826 826 825 825 824 823 822 821 820 819 818 817 816 815 814 813 812 811 810 808 807 806 804 803 802 801 799 798 797 796 795 794 793 792 791 790 789 788 787 786
831 831 830 830 830 829 829 828 827 827 826 825 824 824 823 822 822 821 820 819 818 817 815 814 813 812 811 810 809 808 807 805 804 803 802 800 799 798 796 795 794 792 792 791 789 788 787 786 785 784 783 782
829 829 829 828 828 828 827 826 826 825 824 823 822 821 820 820 819 819 818 817 816 814 813 812 811 809 808 807 806 805 804 803 801 800 799 798 796 795 794 792 791 789 788 787 786 784 783 782 781 780 779 778
827 827 827 827 826 826 825 824 824 823 822 821 820 820 819 818 817 817 815 814 813 812 811 809 808 807 805 804 803 802 801 800 799 798 797 795 794 793 791 789 787 786 784 783 782 780 779 777 777 776 774 773
825 825 825 825 825 824 823 823 822 821 820 819 819 818 817 816 815 814 813 812 811 810 808 807 805 804 803 802 801 800 799 798 797 795 794 792 791 789 788 786 784 782 780 779 778 776 774 773 772 771 770 769
824 823 823 823 823 822 821 821 820 819 818 818 817 816 815 814 813 812 811 810 809 807 806 805 803 802 800 799 798 798 797 795 794 793 791 789 788 786 785 783 781 779 777 775 773 772 771 770 768 767 766 765
822 822 821 821 821 820 820 819 819 818 817 816 816 815 813 812 811 810 809 808 807 806 804 803 801 799 798 797 796 795 794 793 792 790 788 787 785 783 782 780 778 776 774 772 771 769 768 766 765 763 762 761
820 820 820 820 819 819 818 818 817 816 815 814 813 813 811 809 809 808 807 806 805 805 803 801 799 798 796 795 794 793 792 791 789 788 786 785 783 781 779 777 776 774 771 769 768 766 765 763 762 760 759 757
818 819 818 818 817 816 816 815 815 814 813 812 811 810 809 807 807 806 806 805 804 803 802 800 798 796 795 793 792 790 790 788 787 785 783 782 781 778 777 775 773 771 769 767 764 763 762 760 759 757 755 754
816 816 816 816 815 814 813 813 812 811 810 809 808 807 806 806 805 804 803 803 802 801 799 798 796 794 793 791 790 788 787 786 784 783 781 779 778 776 774 772 770 768 766 764 761 760 758 756 755 753 752 750
814 814 814 813 813 812 811 811 810 809 808 807 806 805 805 804 803 802 801 800 799 798 797 795 794 792 790 789 787 785 784 783 781 780 778 776 775 774 772 769 768 765 763 761 758 756 754 753 751 749 747 746
813 812 812 811 810 809 809 808 807 807 806 805 805 804 803 802 801 800 799 798 797 795 794 792 791 789 787 786 784 783 781 780 778 777 775 773 772 771 770 767 765 763 761 758 755 752 749 748 746 744 743 741
813 812 811 810 810 809 808 807 806 805 804 804 803 802 802 800 799 798 797 796 794 793 791 790 788 786 785 784 782 780 779 777 777 775 774 772 770 768 767 765 763 761 759 755 752 748 745 742 740 739 738 736
814 813 812 811 810 809 808 807 806 805 805 804 803 801 800 799 798 797 795 794 793 791 790 788 786 784 783 782 780 778 776 775 774 773 771 769 767 766 763 762 761 760 758 754 749 744 739 737 736 734 732 730
814 814 813 812 811 810 808 807 807 806 805 804 802 801 800 799 798 796 795 793 792 790 789 787 785 783 782 780 779 776 774 773 771 770 768 767 765 763 761 758 758 758 756 753 748 743 738 732 729 727 725 725
815 815 814 813 812 811 808 807 807 806 804 803 802 801 800 799 798 796 794 793 791 789 788 786 784 783 781 779 778 775 773 772 770 769 767 766 764 761 759 757 755 755 754 752 748 745 738 730 725 721 720 720
815 814 813 813 812 811 809 807 807 806 805 805 803 803 801 800 798 796 794 792 790 789 787 785 784 782 780 778 777 775 773 771 770 768 766 765 764 761 758 755 754 754 753 751 749 745 737 732 728 720 716 717
816 814 813 813 811 810 809 808 808 807 806 805 804 803 801 800 798 795 794 792 789 788 786 784 782 781 779 777 775 774 772 771 769 768 766 764 763 762 759 755 752 751 751 751 749 747 741 736 730 720 717 719
816 816 815 813 812 811 810 809 809 808 807 806 804 803 802 800 798 795 793 791 789 787 785 783 781 779 778 776 774 773 771 770 768 766 765 764 762 760 759 756 752 749 749 748 747 746 744 741 735 727 726 726
817 817 816 815 815 814 813 812 811 810 809 807 806 804 802 800 798 796 793 792 790 787 785 783 781 779 777 775 773 772 770 768 767 765 763 762 761 759 757 756 752 749 748 746 745 744 743 741 739 736 734 732
Wind_Speed
12 12 13 13 13 14 15 16 16 15 15 15 14 13 12 12 12 12 11 10 10 10 10 10 10 9 9 9 9 9 9 9 10 10 10 10 10 11 12 12 12 12 13 13 13 13 13 12 12 11 10 10
12 13 14 14 14 14 15 16 16 16 15 15 15 15 14 13 13 13 13 12 12 12 12 12 12 12 12 11 11 11 11 11 12 12 12 12 12 12 13 13 13 13 14 14 14 14 14 14 14 13 13 11
13 14 15 15 15 15 15 16 16 16 16 16 16 16 15 15 15 15 15 14 14 14 14 14 14 14 14 14 14 13 13 13 13 14 14 14 15 14 15 15 15 15 15 15 15 15 15 15 15 15 15 13
13 14 15 15 16 15 15 16 16 16 17 17 17 17 17 16 17 17 16 16 16 16 16 16 16 16 16 16 16 16 15 15 15 16 16 16 17 17 17 17 17 17 17 17 17 17 17 17 17 16 15 15
14 14 15 16 16 16 16 16 17 17 18 18 18 18 18 18 18 18 18 18 18 18 18 18 18 18 18 18 18 18 17 17 17 17 17 17 18 19 19 19 19 19 19 19 18 18 18 18 17 16 16 17
14 14 15 16 17 17 17 17 18 18 19 19 19 19 18 18 18 19 19 20 20 20 20 21 20 20 20 20 20 20 19 19 19 19 19 19 19 20 20 20 20 21 22 21 21 20 20 20 18 17 19 20
15 15 15 16 17 18 18 18 19 19 20 20 20 20 19 19 20 21 21 21 22 21 22 22 23 22 22 22 21 21 21 21 21 21 21 20 21 21 21 21 21 22 23 23 23 22 22 21 20 20 22 21
17 17 16 17 17 18 19 20 20 20 21 21 21 21 21 21 22 22 22 23 23 23 23 24 24 24 24 23 23 23 22 23 23 22 22 22 22 22 23 22 23 23 24 24 23 23 22 21 23 24 24 23
19 18 18 18 18 19 19 20 21 21 21 22 23 23 22 23 24 23 23 24 24 24 25 25 26 25 25 25 25 25 24 24 24 24 24 24 24 23 24 24 24 24 25 24 23 23 22 23 25 25 25 24
21 20 20 20 20 19 20 21 21 21 22 23 23 23 24 24 25 25 25 26 26 26 26 26 26 26 26 26 26 26 25 25 26 26 25 25 25 25 25 26 26 26 26 26 25 25 25 26 26 25 25 25
23 22 22 21 21 21 20 21 22 22 22 23 23 24 24 25 25 26 26 27 28 27 27 27 27 27 27 27 27 27 27 27 27 27 26 26 27 27 27 28 27 27 28 28 28 28 28 29 28 27 26 25
24 24 24 23 22 22 22 22 23 23 23 23 23 24 24 25 26 26 27 28 28 28 28 29 28 28 28 28 28 27 28 28 28 28 27 28 28 28 28 28 28 28 29 29 29 30 30 30 30 29 28 28
26 26 26 25 24 24 23 23 23 23 24 24 24 25 25 25 26 27 28 28 29 29 29 30 30 30 30 30 29 29 29 29 29 28 27 27 27 28 28 28 28 28 28 28 28 30 31 31 31 31 30 31
27 27 27 26 26 25 25 24 24 24 24 25 25 25 26 26 26 27 28 28 29 29 30 31 31 31 31 31 30 30 30 29 29 28 26 27 27 27 27 27 27 27 29 29 30 31 32 32 32 31 31 32
27 28 27 27 27 26 26 25 25 25 26 26 26 26 27 27 27 28 29 29 30 30 31 31 31 32 31 31 31 30 31 30 29 30 28 28 29 27 27 28 28 28 30 31 31 30 32 34 33 32 31 32
27 27 27 27 27 27 27 26 26 27 27 28 28 27 28 28 28 29 30 30 31 31 32 32 32 33 32 33 32 31 31 31 30 31 31 31 32 31 31 31 31 31 31 33 32 31 32 33 33 33 32 32
27 27 27 27 27 27 27 26 27 28 29 29 29 29 29 29 29 30 31 31 32 33 33 33 34 35 35 34 34 33 32 32 31 31 31 32 31 32 31 31 32 30 29 30 30 30 30 30 31 31 31 32
26 27 26 27 27 28 28 27 28 29 29 30 30 30 31 31 31 31 32 32 33 33 34 34 35 36 36 35 34 34 33 32 31 30 30 30 28 28 28 28 29 26 25 26 25 26 26 25 27 27 28 32
26 26 26 27 28 28 29 28 29 30 30 31 30 30 31 33 33 33 33 33 34 34 34 34 35 36 36 35 34 34 33 33 32 30 30 30 26 24 24 25 25 25 24 24 24 26 25 24 24 23 26 30
25 25 26 27 28 29 29 29 30 30 31 31 31 32 33 34 34 34 34 34 34 35 35 34 35 37 36 34 34 34 33 33 33 31 30 31 28 25 24 23 23 23 22 21 23 25 26 26 24 24 27 29
25 25 26 27 28 29 30 30 30 31 32 32 33 33 34 35 36 36 36 36 35 35 36 35 36 38 37 35 35 35 33 32 32 30 29 30 29 25 24 23 23 24 23 20 20 21 25 29 27 26 29 30
23 24 25 26 28 29 30 31 31 32 32 33 33 34 34 34 35 35 35 35 34 34 35 35 36 37 38 35 34 34 33 32 31 29 30 31 29 24 21 21 21 22 23 21 20 22 28 30 27 27 30 31
19 20 22 23 24 26 28 28 29 30 30 31 31 31 31 30 30 31 31 32 31 32 32 33 34 35 36 34 32 32 31 31 29 27 28 29 28 24 22 22 22 24 24 22 22 24 29 29 28 32 34 32
15 16 16 16 17 19 20 19 21 24 26 26 26 27 29 29 29 29 28 28 28 28 29 29 30 31 33 31 29 28 28 28 24 22 22 22 23 23 22 21 22 23 21 21 23 24 27 27 26 30 33 29
12 12 12 13 13 14 15 15 15 18 18 18 22 27 28 26 25 25 25 25 25 25 25 26 27 27 28 26 24 23 24 25 25 25 24 23 21 20 21 21 19 18 16 17 19 19 22 22 22 25 27 28
12 11 12 13 13 15 17 16 15 17 18 18 21 24 23 22 23 24 24 24 23 23 23 23 23 22 23 21 20 20 20 22 25 26 24 22 21 19 19 19 18 15 13 15 16 15 16 17 19 22 23 24
13 12 12 13 14 15 18 18 16 18 19 19 18 18 18 19 22 22 21 20 20 19 19 19 19 19 19 18 18 19 19 20 20 20 19 18 20 21 20 19 17 15 13 15 17 15 12 10 12 13 13 15
16 16 15 15 16 16 17 17 17 17 16 16 16 16 17 18 19 19 18 18 17 16 16 16 16 17 17 17 18 18 18 19 18 18 18 18 20 21 22 22 19 15 15 16 14 10 9 8 9 10 7 6
18 18 17 16 15 15 14 14 14 15 16 17 17 17 18 17 18 19 18 17 17 17 16 16 16 16 17 18 18 17 16 17 17 17 17 18 18 18 19 21 21 18 17 18 16 12 10 9 8 9 9 9
20 17 16 15 14 13 14 13 13 15 16 17 17 17 18 17 17 20 21 19 20 19 19 18 18 18 19 19 18 17 16 15 15 16 16 16 16 17 17 18 20 19 17 18 19 17 17 16 13 13 13 11
22 18 16 16 14 12 13 13 13 14 14 14 15 16 18 17 16 21 24 23 22 22 21 21 20 21 20 20 21 18 15 14 15 15 16 16 16 16 15 15 17 18 16 16 16 15 16 19 20 17 13 9
Wind_Direction
272 270 267 265 262 256 250 246 245 245 244 244 246 247 245 242 242 244 246 248 250 254 259 265 270 277 283 290 294 298 299 300 300 298 296 294 290 290 294 298 301 301 301 303 305 307 310 314 316 320 323 323
275 273 271 270 266 262 257 252 251 250 249 249 250 253 252 250 250 250 251 254 256 259 262 265 270 274 278 283 288 291 293 295 295 294 293 293 292 291 293 296 298 298 298 298 300 301 303 304 307 308 310 311
282 279 274 272 270 267 264 259 257 255 254 254 254 256 257 256 254 254 255 257 259 262 264 267 270 273 276 280 284 286 288 290 290 290 290 291 292 292 293 294 294 295 295 295 296 296 297 298 299 301 302 301
286 283 277 274 272 270 268 265 261 259 258 258 258 258 259 259 258 257 257 258 260 262 264 267 269 272 275 278 281 284 285 286 287 288 289 290 291 292 292 293 293 293 293 293 294 294 294 295 296 295 293 293
286 286 282 276 275 273 270 268 264 262 261 260 260 259 259 260 260 259 259 260 261 263 265 267 270 272 274 276 279 281 283 284 285 286 287 288 289 290 290 291 292 292 291 291 291 292 292 294 293 289 287 289
285 288 287 278 275 273 270 268 266 264 263 262 261 261 260 260 261 261 261 262 262 264 266 268 271 272 273 275 276 278 280 282 283 284 285 286 285 287 288 289 291 291 291 292 291 291 291 293 290 286 289 291
283 288 290 283 276 271 270 268 267 266 265 264 263 263 263 262 262 262 263 264 265 266 268 270 272 272 274 274 275 277 279 280 281 282 283 284 284 285 287 287 288 289 290 292 292 292 291 291 288 287 290 290
281 286 289 286 278 271 269 269 269 268 268 267 266 265 265 264 264 265 266 267 268 269 269 271 273 274 274 275 276 277 278 280 281 282 282 283 284 284 285 285 285 286 287 288 288 289 288 287 286 287 287 286
278 282 285 286 281 274 268 267 268 270 270 269 268 267 266 266 267 268 268 269 270 270 271 272 274 275 276 276 277 278 279 280 281 283 283 283 283 282 282 282 282 282 283 283 283 284 284 283 285 286 285 284
275 279 281 284 284 280 272 268 267 268 269 269 269 268 267 268 268 270 269 270 271 272 273 274 275 276 277 277 278 280 280 279 280 281 281 280 280 279 278 279 280 280 280 280 281 281 281 282 283 284 283 282
273 277 279 282 283 282 277 271 269 269 270 270 270 269 268 268 269 270 271 272 273 274 275 275 276 277 276 278 279 279 279 279 279 280 279 278 279 278 278 279 279 279 280 281 281 282 282 283 284 283 282 282
273 275 277 280 281 282 279 274 272 271 271 272 273 271 269 269 269 270 271 273 274 276 277 277 277 277 277 278 279 279 278 279 279 279 278 277 278 278 278 279 279 280 280 281 282 282 283 283 284 283 282 282
273 274 276 278 281 282 282 278 275 273 273 274 274 273 272 271 271 271 273 274 276 277 277 278 278 278 278 278 278 279 279 279 279 278 277 277 278 278 278 278 279 279 279 280 280 281 282 282 283 283 283 283
273 275 276 278 281 282 282 281 279 276 275 275 274 274 274 274 273 273 274 275 277 277 278 279 279 280 280 279 278 278 279 278 278 277 276 276 277 277 278 278 277 278 278 279 279 280 281 281 281 281 281 282
275 276 277 279 281 282 283 284 283 280 278 277 276 276 276 276 276 275 276 276 278 278 279 280 280 280 280 279 279 279 280 279 278 278 277 276 276 276 276 277 277 277 278 279 279 279 280 281 281 280 280 281
278 278 279 280 281 282 284 286 285 283 281 279 279 280 279 278 278 278 278 278 280 280 281 281 281 281 280 280 280 280 281 280 279 279 279 278 278 278 278 278 278 278 278 278 278 277 278 281 281 281 281 281
281 281 281 282 282 282 285 286 286 284 282 282 282 282 281 281 280 280 280 280 281 282 282 282 282 282 281 281 281 281 282 282 282 281 280 280 280 280 279 278 279 278 277 277 278 278 278 279 280 281 282 281
282 282 282 283 283 283 285 286 285 284 284 283 283 284 284 283 282 281 281 281 281 282 283 283 283 283 283 283 283 283 284 283 282 280 279 279 278 277 277 277 277 276 273 274 275 276 277 276 277 278 279 281
284 283 284 284 285 284 285 285 284 284 284 285 286 286 285 285 284 284 283 283 283 283 284 284 284 285 285 285 285 285 286 284 283 280 278 278 275 273 274 274 275 274 273 273 273 275 276 275 275 274 276 280
289 287 285 285 285 285 284 284 284 284 285 287 288 287 287 288 288 289 288 287 286 286 286 285 285 287 287 287 286 287 287 286 284 281 279 278 276 273 273 273 274 275 274 273 274 276 278 277 275 274 277 278
295 292 289 288 287 286 285 285 285 286 287 289 290 291 291 291 292 294 293 293 291 290 289 287 287 288 288 287 287 288 288 285 284 282 279 278 277 274 273 274 275 276 277 274 273 274 278 280 278 275 277 277
304 300 297 294 292 290 289 289 289 290 290 292 294 295 296 297 298 299 298 298 296 295 294 292 290 290 290 288 288 288 288 286 284 281 279 279 279 275 272 274 275 277 280 278 275 275 278 279 276 275 277 277
325 318 312 307 303 301 300 300 299 299 299 301 302 303 305 306 307 307 307 307 305 302 300 297 294 293 292 290 288 288 287 286 285 282 282 282 281 279 275 275 276 279 280 279 277 277 279 278 275 278 280 278
339 332 324 316 312 309 308 306 305 306 308 309 311 311 312 314 315 317 317 317 316 312 308 303 300 297 295 293 290 288 287 286 285 283 285 284 284 284 281 278 277 279 279 281 281 278 276 274 272 277 279 274
343 336 330 323 320 316 313 311 310 312 314 314 316 317 319 324 328 330 331 330 327 322 316 309 305 302 299 296 292 288 287 288 289 288 287 286 284 282 281 281 279 278 281 286 287 284 281 277 272 270 268 266
350 339 333 325 323 319 316 317 315 317 325 329 329 331 335 339 340 339 336 335 333 328 324 316 310 306 304 301 297 293 291 293 295 295 292 288 286 283 279 280 280 277 278 285 290 294 293 288 280 267 258 257
358 348 344 336 335 331 324 328 331 332 341 348 347 348 348 345 344 343 340 338 336 332 329 324 317 313 311 309 307 304 302 300 300 300 299 296 295 295 290 285 282 274 266 276 289 294 289 293 296 282 263 257
11 7 5 358 355 351 341 341 346 347 352 355 352 351 351 351 352 354 351 348 347 341 337 333 327 324 320 318 317 314 311 309 308 308 308 306 302 301 298 294 292 284 273 273 282 289 287 296 297 285 290 294
24 19 13 7 2 0 353 350 356 356 353 352 353 354 356 359 1 3 1 358 355 350 346 342 338 335 330 328 327 324 320 316 316 316 315 313 309 304 300 297 295 292 284 278 274 271 280 294 285 280 313 327
34 26 16 14 10 5 0 357 2 1 354 353 355 357 359 3 6 6 4 1 358 354 352 350 345 342 339 338 336 333 329 325 324 323 320 318 313 306 302 299 296 293 291 286 278 268 267 274 277 290 312 316
39 32 23 22 19 15 10 2 359 360 360 360 0 1 4 7 8 4 4 4 2 359 356 354 351 348 346 343 341 340 337 334 331 329 324 321 317 311 304 300 295 294 297 295 286 275 269 271 276 285 296 298